Regional Weather Roundup
Issued by NWS Little Rock, AR

Home | Current Version | Previous Version | Text Only | Print | Product List | Glossary On
Versions: 1 2 3 4 5 6 7 8 9 10 11 12 13 14 15 16 17 18 19 20 21 22 23 24 25 26 27 28 29 30 31 32 33 34 35 36 37 38 39 40 41 42 43 44 45 46 47 48 49 50
000
ASUS44 KLZK 290805
RWRLZK

WEATHER ROUNDUP FOR ARKANSAS
NATIONAL WEATHER SERVICE LITTLE ROCK AR
300 AM CDT FRI APR 29 2016

NOTE: "FAIR" INDICATES FEW OR NO CLOUDS BELOW 12,000 FEET WITH NO
SIGNIFICANT WEATHER AND/OR OBSTRUCTIONS TO VISIBILITY.

ARZ001-003-010-029-290900-
NORTHWEST ARKANSAS

CITY           SKY/WX    TMP DP  RH WIND       PRES   REMARKS
FAYETTEVILLE   PTCLDY    56  51  84 CALM      29.92F
FORT SMITH     CLOUDY    62  52  69 E3        29.87F
HARRISON       CLOUDY    57  46  66 CALM      29.98S
BENTONVILLE    PTCLDY   N/A N/A N/A E6        29.94F
ROGERS         CLOUDY    61  46  57 E9        29.95F
SILOAM SPGS    CLOUDY    61  43  51 E3        29.91F
HIGHFILL       CLOUDY    61  48  62 NE8       29.92F
$$

ARZ004-005-016-290900-
NORTH CENTRAL ARKANSAS

CITY           SKY/WX    TMP DP  RH WIND       PRES   REMARKS
BATESVILLE     PTCLDY    55  52  88 CALM      29.97S
FLIPPIN        CLOUDY   N/A N/A N/A CALM      29.95S
MTN HOME       CLOUDY    60  45  57 NE7       29.96F
$$

ARZ040-041-290900-
WEST CENTRAL ARKANSAS

CITY           SKY/WX    TMP DP  RH WIND       PRES   REMARKS
MENA           MOCLDY    61  59  94 CALM      29.89F
MOUNT IDA      CLOUDY    60  56  86 CALM      29.87F
$$

ARZ009-017-025-026-028-290900-
NORTHEAST ARKANSAS

CITY           SKY/WX    TMP DP  RH WIND       PRES   REMARKS
CORNING          N/A     63  50  63 NE10      29.98R
JONESBORO      CLOUDY    57  53  86 CALM      29.95S
NEWPORT        CLOUDY    61  57  86 NW5       29.97R
WALNUT RIDGE   CLOUDY    59  52  77 N7        29.96R
BLYTHEVILLE    CLOUDY    60  52  74 CALM      29.96S
$$

ARZ022-023-033-042-044-290900-
CENTRAL ARKANSAS

CITY           SKY/WX    TMP DP  RH WIND       PRES   REMARKS
LITTLE ROCK    CLOUDY    66  56  70 CALM      29.93S
N LITTLE ROCK    N/A     67  55  66 E6        29.92R
JACKSONVILLE   CLOUDY    61  56  83 MISG      29.93R
SEARCY         CLOUDY    59  55  88 N3        29.96R
HOT SPRINGS    MOCLDY    68  53  58 E15       29.86F
RUSSELLVILLE   CLOUDY    59  54  83 CALM      29.91F
$$

ARZ036-290900-
EAST ARKANSAS

CITY           SKY/WX    TMP DP  RH WIND       PRES   REMARKS
WEST MEMPHIS   CLOUDY    62  51  67 CALM      29.93S
$$

ARZ050-053-066-070-073-290900-
SOUTHWEST ARKANSAS

CITY           SKY/WX    TMP DP  RH WIND       PRES   REMARKS
ARKADELPHIA    LGT RAIN  65  62  90 NE5       29.88F
CAMDEN         MOCLDY    64  59  82 CALM      29.88F
TEXARKANA      CLOUDY    70  59  68 VRB5      29.82F THUNDER
EL DORADO      PTCLDY    66  62  87 E6        29.87F
DE QUEEN       MOCLDY    69  56  62 E10       29.80F
$$

ARZ056-057-069-290900-
SOUTHEAST ARKANSAS

CITY           SKY/WX    TMP DP  RH WIND       PRES   REMARKS
PINE BLUFF     CLOUDY    65  57  75 CALM      29.91F
STUTTGART      CLOUDY    66  54  63 MISG      29.92F
MONTICELLO     CLEAR     63  58  83 CALM      29.90F

$$





USA.gov is the U.S. government's official web portal to all federal, state and local government web resources and services.